CST,Max TemperatureF,Mean TemperatureF,Min TemperatureF,Max Dew PointF,MeanDew PointF,Min DewpointF,Max Humidity, Mean Humidity, Min Humidity, Max Sea Level PressureIn, Mean Sea Level PressureIn, Min Sea Level PressureIn, Max VisibilityMiles, Mean VisibilityMiles, Min VisibilityMiles, Max Wind SpeedMPH, Mean Wind SpeedMPH, Max Gust SpeedMPH,PrecipitationIn, CloudCover, Events, WindDirDegrees
2013-2-1,63,54,43,43,36,31,72,57,35,30.41,30.36,30.31,10,10,5,12,4,,0.00,1,,49
2013-2-2,63,50,36,53,43,28,96,76,39,30.37,30.27,30.21,10,9,2,13,6,,0.00,0,,137
2013-2-3,64,56,47,53,46,39,93,71,45,30.29,30.22,30.15,10,10,10,13,7,,0.00,1,,307
2013-2-4,63,54,44,56,49,38,96,76,46,30.13,30.02,29.98,10,9,4,8,5,,0.30,7,Rain,103
2013-2-5,69,62,55,61,57,55,100,92,73,30.06,29.99,29.94,10,6,0,13,5,,0.55,6,Fog-Rain,84
2013-2-6,66,60,55,63,57,55,100,95,80,30.16,30.08,30.02,10,6,0,12,2,,0.03,7,Fog-Rain,91
2013-2-7,75,66,56,61,60,56,100,90,59,30.01,29.88,29.81,10,7,1,24,10,36,1.90,6,Rain-Thunderstorm,54
2013-2-8,70,62,53,61,55,50,100,92,69,30.17,30.03,29.97,10,6,0,17,3,21,0.00,2,Fog,358
2013-2-9,64,55,46,58,49,43,94,80,67,30.25,30.18,30.10,10,10,10,16,11,23,0.00,4,,80
2013-2-10,68,64,60,68,64,57,100,91,82,30.10,30.02,29.96,10,8,1,20,14,26,0.05,8,Rain-Thunderstorm,161
2013-2-11,68,62,57,68,62,55,100,96,87,30.12,30.05,29.99,10,6,0,18,9,26,0.36,7,Fog-Rain,59
2013-2-12,68,62,57,68,60,55,100,96,88,30.05,29.89,29.77,10,7,1,16,9,24,0.11,7,Rain,96
2013-2-13,66,56,44,64,50,41,100,88,76,30.08,29.96,29.80,10,9,4,16,7,25,0.22,4,Rain,330
2013-2-14,56,48,41,45,42,39,94,80,58,30.17,30.11,30.07,10,10,10,10,5,,0.00,0,,44
2013-2-15,62,51,40,46,42,37,95,74,40,30.20,30.12,30.08,10,10,7,10,2,,0.00,0,,227
2013-2-16,53,46,39,39,26,16,66,44,24,30.31,30.21,30.13,10,10,10,20,8,29,0.00,2,Rain,333
2013-2-17,53,42,32,39,29,22,74,55,34,30.40,30.33,30.28,10,10,10,10,6,,0.00,0,,139
2013-2-18,64,58,53,58,50,39,86,71,56,30.27,30.15,30.01,10,10,10,17,12,25,0.00,5,Rain,156
2013-2-19,67,57,46,59,53,28,100,80,24,30.24,30.06,29.98,10,9,4,23,13,38,0.28,6,Rain-Thunderstorm,279
2013-2-20,58,50,41,38,29,23,67,48,28,30.29,30.18,30.06,10,10,10,14,9,,0.00,1,,73
2013-2-21,66,56,46,64,54,35,96,82,58,30.06,29.94,29.85,10,10,6,18,9,29,0.00,7,,121
2013-2-22,69,64,58,68,61,50,100,90,52,29.98,29.90,29.87,10,8,1,16,7,18,0.35,8,Rain-Thunderstorm,356
2013-2-23,62,60,57,61,56,54,100,95,82,29.94,29.88,29.80,10,7,1,16,9,18,0.01,8,Rain-Thunderstorm,14
2013-2-24,66,62,59,59,56,52,94,82,64,29.99,29.86,29.80,10,8,3,14,8,,0.16,5,Rain-Thunderstorm,87
2013-2-25,68,64,60,66,61,59,100,94,83,29.81,29.66,29.49,10,7,0,33,12,41,3.85,8,Fog-Rain-Thunderstorm,113
2013-2-26,61,55,49,50,41,36,71,59,50,29.94,29.76,29.56,10,10,10,23,10,26,0.00,1,,260
2013-2-27,61,54,48,52,44,38,81,65,45,30.05,29.98,29.94,10,10,10,14,5,,0.00,1,,214
2013-2-28,58,52,45,38,34,30,75,51,37,30.12,30.08,30.04,10,10,10,15,7,18,0.00,7,,322